• Join FlightAware (Why Join?)
  • Login
  • US Flag 
11:07AM EDT


 

Airport Tracker/Info


-or-


 

Live Flight TrackerFlight Track Log ✈ N400PU ✈ 02-Dec-2012 ✈ KMWO - KLAF

Flight Track Log - Related Links

Times and Time Zones

All times are in EST time to prevent confusion due to time zone crossing. See the N400PU flight status page for this flight to view local times or setup timezone preferences in your user account.

Time Position Orientation Groundspeed Altitude Reporting Facility
EST Latitude Longitude Course Direction KTS MPH feet Rate Location/Type
04:42PM 39.5206 -84.4108 240° Southwest 150 173 1,800  Level Indianapolis Center
04:42PM 39.5103 -84.4336 240° Southwest 154 177 2,900 840 Climbing Indianapolis Center
04:43PM 39.5442 -84.5061 301° West 220 253 3,200 420 Climbing Indianapolis Center
04:44PM 39.5500 -84.5167 306° West 225 259 3,500 1,800 Climbing Indianapolis Center
04:44PM 39.5811 -84.5678 308° West 219 252 5,000 1,620 Climbing Indianapolis Center
04:45PM 39.5892 -84.5789 313° West 223 257 5,200 1,680 Climbing Indianapolis Center
04:46PM 39.6325 -84.6442 311° West 230 265 7,300 2,160 Climbing Indianapolis Center
04:47PM 39.6850 -84.7269 310° West 247 284 9,700 1,260 Climbing Indianapolis Center
04:48PM 39.7361 -84.8086 309° West 286 329 10,000 1,140 Climbing Indianapolis Center
04:49PM 39.7761 -84.9014 299° West 301 346 12,100 960 Climbing Indianapolis Center
04:50PM 39.8114 -85.0133 292° West 332 382 12,000 -60 Descending Indianapolis Center
04:51PM 39.8500 -85.1294 293° West 347 399 12,000  Level Indianapolis Center
04:52PM 39.8867 -85.2444 293° West 344 396 12,000  Level Indianapolis Center
04:53PM 39.9242 -85.3603 293° West 345 397 12,000  Level Indianapolis Center
04:54PM 39.9661 -85.4933 292° West 341 392 12,000  Level Indianapolis Center
04:55PM 40.0022 -85.6078 292° West 340 391 12,000 -360 Level Indianapolis Center
04:56PM 40.0386 -85.7219 293° West 340 391 11,300 -1,080 Descending Indianapolis Center
04:57PM 40.0733 -85.8336 292° West 333 383 9,900 -660 Descending Indianapolis Center
04:58PM 40.1025 -85.9292 292° West 292 336 10,000  Climbing Indianapolis Center
04:59PM 40.1292 -86.0244 290° West 281 323 10,000  Level Indianapolis Center
05:00PM 40.1528 -86.1197 288° West 277 319 10,000 -180 Level Indianapolis Center
05:01PM 40.1769 -86.2139 289° West 274 315 9,700 -780 Descending Indianapolis Center
05:02PM 40.2036 -86.3161 289° West 262 302 8,500 -1,320 Descending Indianapolis Center
05:03PM 40.2242 -86.4008 288° West 249 287 7,000 -1,260 Descending Indianapolis Center
05:04PM 40.2453 -86.4853 288° West 247 284 6,000 -960 Descending Indianapolis Center
05:05PM 40.2639 -86.5625 288° West 234 269 5,100 -1,080 Descending Indianapolis Center
05:06PM 40.2853 -86.6456 289° West 234 269 3,800 -1,080 Descending Indianapolis Center
05:07PM 40.3275 -86.6972 317° Northwest 227 261 3,000 -600 Descending Indianapolis Center
05:08PM 40.3786 -86.6989 359° North 196 226 2,600 -240 Descending Indianapolis Center
05:09PM 40.3906 -86.7561 285° West 172 198 2,600 -120 Level Indianapolis Center
05:10PM 40.3975 -86.8100 280° West 138 159 2,400 -180 Descending Indianapolis Center
05:11PM 40.4053 -86.8494 285° West 134 154 2,300 -120 Descending Indianapolis Center